星链-4427 (STARLINK-4427 )

导读

STARLINK-4427是美国于2022年7月22日发射的星链(Starlink)低轨卫星,属于SpaceX打造的星链互联网星座组网卫星。它运行在近地轨道,用于为全球提供高速宽带互联网服务,补充星链星座的覆盖能力与服务容量,支撑星链网络持续拓展全球覆盖范围。

Basic Information
目录编号:
53210
目录名称:
STARLINK-4427
国际标识:
2022-084X
轨道中心:
EARTH
卫星名称:
星链-4427
卫星全名:
星链-4427 (STARLINK-4427 )
卫星状态:
在轨 (已飞行1426 天)
发射日期:
2022-07-22 UTC
国别 :
美国 (US)
星等 :
--
Orbit Information
数据来源 国际轨道数据 AOE轨道数据
星历时间 2026-06-17T10:23:15+0800
8小时前
查看轨道信息
2026-06-16T23:00:00+0800
20小时前
查看轨道信息
半长轴 6927.636km 6927.62km
偏心率 0.0001871 0.0001973
轨道倾角 97.350° 97.371°
近地点辐角 121.279° 119.351°
升交点赤经 227.091° 226.657°
平近点角 238.863° 190.584°
近地点 548.202km 548.116km
远地点 550.796km 550.85km
周期 95.640分钟 95.639分钟
每日圈数 15.05654 15.056593
Detailed Information
固有亮度:
5
最大亮度:
2.5
卫星平台:
Starlink v1.5
覆盖范围:
全球
运营商:
太空探索技术公司
运营商所在国:
美国
制造商(研发单位):
太空探索技术公司
制造商所在国:
美国
使用方式:
暂无
Satellite Introduction
星链(Starlink)计划是由太空探索技术公司(SpaceX)提出的一个巨型低轨卫星互联网星座项目,计划在2019年至2024年间在太空搭建由约1.2万颗卫星组成的“星链”网络,其中1584颗将部署在地球上空550千米处的近地轨道,并从2020年开始工作。该卫星仍在工作。
2D Orbit Map
3D Orbit Map
Orbit Altitude Analysis Chart
Orbit Inclination Analysis Chart
Orbit Comprehensive Analysis Chart
View Comprehensive Chart